This is the latest recevied weather packets stored in our database for station/object KC3DGM. If no packets are shown the sender has not sent any weather packets the latest 10 day(s).
| Time | Temp. | Humidity | Pressure | Rain* | Wind** | Luminosity | Snow |
|---|---|---|---|---|---|---|---|
| 1777654631 | 5.56° C | 92% | 983.6 hPa | 3.05 mm | - | 76 W/m² | - |
| 1777654329 | 5.56° C | 92% | 983.6 hPa | 3.05 mm | - | 58 W/m² | - |
| 1777654026 | 6.11° C | 93% | 983.5 hPa | 1.78 mm | - | 59 W/m² | - |
| 1777653724 | 6.11° C | 92% | 983.7 hPa | 1.27 mm | - | 48 W/m² | - |
| 1777653419 | 6.11° C | 91% | 983.6 hPa | 3.05 mm | - | 45 W/m² | - |
| 1777653116 | 6.11° C | 91% | 983.8 hPa | 1.78 mm | - | 69 W/m² | - |
| 1777652812 | 6.67° C | 91% | 983.6 hPa | 1.27 mm | - | 67 W/m² | - |
| 1777652509 | 6.67° C | 91% | 983.6 hPa | 1.27 mm | - | 60 W/m² | - |
| 1777652206 | 6.67° C | 91% | 983.8 hPa | 1.78 mm | - | 72 W/m² | - |
| 1777651904 | 6.67° C | 91% | 983.6 hPa | 1.78 mm | - | 104 W/m² | - |
| 1777651600 | 6.67° C | 91% | 983.6 hPa | 0 mm | - | 109 W/m² | - |
| 1777651297 | 6.67° C | 91% | 983.7 hPa | 1.27 mm | - | 102 W/m² | - |
| 1777650994 | 6.67° C | 91% | 983.6 hPa | 1.27 mm | - | 69 W/m² | - |
| 1777650691 | 6.67° C | 92% | 983.7 hPa | 0 mm | - | 103 W/m² | - |
| 1777650388 | 6.67° C | 92% | 983.9 hPa | 0 mm | - | 121 W/m² | - |
| 1777650085 | 6.67° C | 93% | 984.2 hPa | 0 mm | - | 120 W/m² | - |
| 1777649783 | 6.67° C | 94% | 983.7 hPa | 0 mm | - | 109 W/m² | - |
| 1777649479 | 6.11° C | 94% | 983.9 hPa | 0 mm | - | 58 W/m² | - |
| 1777649176 | 6.11° C | 95% | 984.1 hPa | 0 mm | - | 52 W/m² | - |
| 1777648873 | 6.11° C | 95% | 983.9 hPa | 0 mm | - | 78 W/m² | - |
| 1777648267 | 6.11° C | 95% | 983.9 hPa | 1.78 mm | - | 60 W/m² | - |
| 1777647963 | 6.11° C | 95% | 984.1 hPa | 1.78 mm | - | 58 W/m² | - |
| 1777647659 | 6.11° C | 94% | 984.1 hPa | 1.27 mm | - | 57 W/m² | - |
| 1777647355 | 6.11° C | 94% | 984 hPa | 1.27 mm | - | 57 W/m² | - |
| 1777647053 | 5.56° C | 94% | 984.1 hPa | 0 mm | - | 51 W/m² | - |
* Rain latest hour (hover to see other rain measurements)
** Current wind speed in m/s (hover to see current wind gust speed)